Flag for United Kingdom Weather past 2 weeks in Exeter, England, United Kingdom

55 °F

Passing clouds.

Feels Like: 52 °F
Forecast: 45 / 61 °F
Wind: 12 mph from Northwest

Location: Exeter Airport

Current Time: Oct 7, 2015 at 9:38:51 AM

Latest Report: Oct 7, 2015 at 9:20 AM

Visibility: N/A

Pressure: 29.86 "Hg

Humidity: 72%

Dew point: 46 °F

Location of ExeterLocation

Historic Weather in Exeter — Graph


Exeter temperature yesterday

Maximum temperature yesterday: 64 °F (at 1:20 PM)
Minimum temperature yesterday: 55 °F (at 10:50 PM)
Average temperature yesterday: 61 °F

Past Weeks' High & Low Weather Summary

High66 °F (Sep 29, 2:20 PM)100% (Sep 22, 11:50 PM)30.57 "Hg (Sep 22, 11:50 PM)
Low36 °F (Sep 26, 7:20 AM)52% (Sep 29, 3:50 PM)29.30 "Hg (Oct 6, 6:50 AM)
Average56 °F84%30.10 "Hg
* Reported Sep 22 8:20 AM — Oct 7 8:20 AM, Exeter, Weather by CustomWeather, © 2015

Note: Actual official high and low records may vary slightly from our data, if they occured in-between our weather recording intervals... More about our weather records


Exeter weather history for previous 24 hours

Time TempWeatherWind HumidityBarometerVisibility
8:20 AM
Wed, Oct 7
54 °FPassing clouds.13 mph77%29.83 "HgN/A
7:50 AM52 °FPassing clouds.14 mph82%29.80 "HgN/A
7:20 AM54 °FPassing clouds.15 mph82%29.80 "HgN/A
6:50 AM54 °FPassing clouds.13 mph88%29.77 "HgN/A
6:20 AM54 °FPassing clouds.14 mph88%29.77 "HgN/A
5:50 AM54 °FPassing clouds.16 mph88%29.74 "HgN/A
5:20 AM54 °FPassing clouds.15 mph88%29.74 "HgN/A
1:20 AM54 °FPassing clouds.21 mph94%29.62 "HgN/A
12:50 AM54 °FPassing clouds.18 mph100%29.62 "HgN/A
11:50 PM
Tue, Oct 6
55 °FPartly cloudy.13 mph94%29.59 "Hg5 mi
11:20 PM55 °FPartly cloudy.17 mph100%29.56 "Hg4 mi
10:50 PM55 °FPartly cloudy.15 mph100%29.56 "Hg4 mi
10:20 PM57 °FPassing clouds.14 mph94%29.53 "Hg5 mi
9:50 PM59 °FPassing clouds.9 mph94%29.53 "HgN/A
9:20 PM59 °FPassing clouds.8 mph94%29.50 "HgN/A
8:50 PM59 °FPassing clouds.12 mph94%29.50 "HgN/A
8:20 PM59 °FPassing clouds.9 mph94%29.47 "HgN/A
7:50 PM59 °FPassing clouds.12 mph94%29.45 "HgN/A
7:20 PM59 °FPassing clouds.12 mph100%29.45 "HgN/A
6:50 PM59 °FScattered showers. Scattered clouds.6 mph94%29.42 "HgN/A
6:20 PM59 °FScattered showers. Scattered clouds.8 mph100%29.39 "HgN/A
5:50 PM61 °FSprinkles. Scattered clouds.10 mph94%29.36 "HgN/A
5:20 PM63 °FSprinkles. Scattered clouds.7 mph88%29.36 "HgN/A
4:50 PM64 °FScattered showers. Scattered clouds.5 mph83%29.33 "HgN/A
4:20 PM64 °FScattered clouds.3 mph78%29.33 "HgN/A
3:50 PM64 °FScattered clouds.3 mph78%29.30 "HgN/A
3:20 PM63 °FScattered clouds.1 mph83%29.30 "HgN/A
2:50 PM63 °FScattered clouds.6 mph88%29.30 "HgN/A
2:20 PM63 °FScattered clouds.5 mph83%29.30 "HgN/A
1:50 PM63 °FScattered clouds.10 mph88%29.30 "HgN/A
1:20 PM64 °FPartly sunny.13 mph83%29.30 "HgN/A
12:50 PM63 °FPartly sunny.14 mph88%29.30 "HgN/A
12:20 PM63 °FScattered clouds.15 mph88%29.30 "HgN/A
11:50 AM63 °FScattered clouds.15 mph88%29.30 "HgN/A
11:20 AM61 °FScattered clouds.16 mph94%29.30 "HgN/A
10:50 AM63 °FScattered clouds.17 mph88%29.30 "HgN/A
10:20 AM61 °FScattered clouds.16 mph94%29.30 "HgN/A
9:50 AM61 °FScattered clouds.14 mph94%29.30 "HgN/A
9:20 AM61 °FScattered clouds.14 mph94%29.30 "HgN/A
Weather by CustomWeather, © 2015

See weather overviewHow to use our weather pages